Regional Weather Roundup
Issued by NWS

Home | Current Version | Previous Version | Text Only | Print | Product List | Glossary On
Versions: 1 2 3 4 5 6 7 8 9 10 11 12 13 14 15 16 17 18 19 20 21 22 23 24 25 26 27 28 29 30 31 32 33 34 35 36 37 38 39 40 41 42 43 44 45 46 47 48 49 50
000
ASUS43 KMPX 011901
RWRMN
WEATHER ROUNDUP FOR MINNESOTA
NATIONAL WEATHER SERVICE TWIN CITIES/CHANHASSEN MN
200 PM CDT SAT OCT 01 2016


NOTE: "FAIR" INDICATES FEW OR NO CLOUDS BELOW 12,000 FEET WITH NO
SIGNIFICANT WEATHER AND/OR OBSTRUCTIONS TO VISIBILITY. N/A MEANS
CURRENT SKY AND/OR WEATHER CONDITIONS ARE NOT AVAILABLE.

MNZ060>063-068>070-012000-
   Twin Cities Metro

CITY           SKY/WX    TMP DP  RH WIND       PRES   REMARKS
TWIN CITIES    SUNNY     70  56  61 NE7       30.10F
ST PAUL        SUNNY     70  55  59 E8        30.11F
CRYSTAL        SUNNY     67  53  61 NE7       30.10F
BLAINE         SUNNY     68  57  68 NE7       30.11F
LAKEVILLE      MOSUNNY   68  55  64 N9        30.10F
EDEN PRAIRIE   SUNNY     70  55  59 NE8       30.09F
LAKEVILLE      MOSUNNY   68  55  64 N9        30.10F
SOUTH ST PAUL  SUNNY     71  55  56 NE7       30.10F
LAKE ELMO      FAIR      70  55  60 E8        30.11F
$$
MNZ001>005-007-008-013>017-022>024-027-028-012000-
   Northwest Minnesota

CITY           SKY/WX    TMP DP  RH WIND       PRES   REMARKS
BEMIDJI        SUNNY     63  53  69 CALM      30.15F
HALLOCK        CLOUDY    70  54  56 SE8       30.10F
ROSEAU         MOSUNNY   64  55  72 SE3       30.14F
WARROAD        PTSUNNY   59  54  82 NE3       30.16F
THIEF RVR FALL SUNNY     66  52  60 E8        30.13F
CROOKSTON      CLOUDY    68  54  60 SE7       30.11F
FOSSTON        CLOUDY    70  52  52 CALM      30.14F
DETROIT LAKES  SUNNY     64  54  68 S6        30.14F
MOORHEAD       SUNNY     72  52  49 S12       30.11F
PARK RAPIDS    SUNNY     65  50  58 SE7       30.15F
MAHNOMEN       FAIR      68  52  56 S3        30.13F
$$
MNZ006-009>011-018-025>026-012000-
   North Central Minnesota

CITY           SKY/WX    TMP DP  RH WIND       PRES   REMARKS
BAUDETTE       CLOUDY    63  52  67 E5        30.16F
FLAG ISLAND    CLOUDY    57  52  82 SW3       30.16F
INTL FALLS     SUNNY     68  48  48 VRB3      30.16F
WASKISH        MOSUNNY   66  54  63 E3        30.16F
BIG FORK       SUNNY     70  52  52 CALM      30.16F
GRAND RAPIDS   CLOUDY    62  53  72 VRB5      30.18F
ORR            SUNNY     70  46  43 SE3       30.14F
COOK           SUNNY     68  50  52 E3        30.17F
WALKER         FAIR      58  52  79 E5        30.16F
$$
MNZ012-019>021-037-012000-
   Northeast Minnesota

CITY           SKY/WX    TMP DP  RH WIND       PRES   REMARKS
DULUTH         SUNNY     63  53  70 E10       30.17F
ELY            SUNNY     70  45  40 S3        30.16F
HIBBING        PTSUNNY   65  48  54 CALM      30.16F
EVELETH        SUNNY     68  44  42 S6        30.17F
DULUTH HARBOR  PTSUNNY   59  55  88 NE9       30.18F
TWO HARBORS    SUNNY     66  57  72 E6        30.16F
SILVER BAY     CLOUDY    64  55  72 E9        30.16F
GRAND MARAIS     N/A     61  57  87 E9        30.17F
$$
MNZ029>031-032-039>041-046>048-054>057-064-012000-
   West Central Minnesota

CITY           SKY/WX    TMP DP  RH WIND       PRES   REMARKS
FERGUS FALLS   SUNNY     70  54  56 SE14      30.13F
MORRIS         SUNNY     72  54  53 SE6       30.10F
ALEXANDRIA     SUNNY     67  55  65 VRB3      30.14F
ELBOW LAKE     FAIR      69  53  57 E9        30.13F
WADENA         SUNNY     66  54  63 CALM      30.13F
GLENWOOD       SUNNY     70  54  56 E6        30.13F
BENSON         SUNNY     72  54  53 E6        30.10F
ORTONVILLE     SUNNY     70  55  60 CALM      30.10F
MADISON        SUNNY     73  55  53 E8        30.10F
WILLMAR        FAIR      70  55  60 E7        30.12F
$$
MNZ033>034-036-042>043-049>051-058-059-012000-
   Central Minnesota

CITY           SKY/WX    TMP DP  RH WIND       PRES   REMARKS
ST CLOUD       SUNNY     68  54  60 NE5       30.12F
SAUK CENTRE    FAIR      68  53  58 E8        30.13F
PAYNESVILLE    SUNNY     70  52  53 NE8       30.12F
AITKIN         SUNNY     70  52  52 E3        30.13F
PINE RIVER     CLOUDY    64  54  68 CALM      30.18F HAZE
BRAINERD       SUNNY     69  54  58 MISG      30.14F
STAPLES        SUNNY     66  52  59 NE3       30.14F
LONG PRAIRIE   FAIR      68  52  56 NE7       30.14F
LITTLE FALLS   SUNNY     70  52  52 CALM      30.13F
LITCHFIELD     SUNNY     70  55  60 NE8       30.12F
BUFFALO        SUNNY     67  53  60 NE5       30.13F
MAPLE LAKE     SUNNY     69  56  63 N7        30.13F
HUTCHINSON     CLOUDY    70  57  62 NE7       30.12F
$$
MNZ037-044-045-052-053-012000-
   East Central Minnesota

CITY           SKY/WX    TMP DP  RH WIND       PRES   REMARKS
PRINCETON      SUNNY     70  55  60 N6        30.13F
MORA           SUNNY     64  52  63 NE3       30.15F
CAMBRIDGE      SUNNY     68  54  60 E7        30.11F
MOOSE LAKE     SUNNY     68  50  52 NE9       30.13F
HINCKLEY       FAIR      70  54  56 NE3       30.13F
CLOQUET        SUNNY     63  50  63 E10       30.16F
MCGREGOR       SUNNY     68  54  60 E9        30.15F
$$
MNZ071>073-080-081-089-090-097-098-012000-
   Southwest Minnesota

CITY           SKY/WX    TMP DP  RH WIND       PRES   REMARKS
MONTEVIDEO     MOSUNNY   75  54  46 CALM      30.12F
GRANITE FALLS  SUNNY     73  55  53 N3        30.11F HAZE
CANBY          SUNNY     70  54  57 SE6       30.12F
MARSHALL       MOSUNNY   70  54  56 E6        30.10F
REDWOOD FALLS  SUNNY     73  52  47 VRB6      30.09F
OLIVIA         SUNNY     73  55  53 E9        30.09F
PIPESTONE      CLOUDY    66  54  63 CALM      30.11F
WINDOM         SUNNY     72  54  53 E6        30.09F
WORTHINGTON    MOSUNNY   69  52  54 VRB5      30.10F
JACKSON        PTSUNNY   70  52  52 E12       30.10F
TRACY          SUNNY     72  55  56 E8        30.10F
$$
MNZ065>067-074>077-082>085-091>093-012000-
   South Central Minnesota

CITY           SKY/WX    TMP DP  RH WIND       PRES   REMARKS
MANKATO        SUNNY     70  56  61 NE10      30.09F
NEW ULM        SUNNY     70  54  56 E5        30.09F
ST JAMES       PTSUNNY   72  54  53 N7        30.09F
FAIRMONT       CLOUDY    70  54  56 NE8       30.09F
FARIBAULT      MOSUNNY   72  55  56 NE6       30.09F
OWATONNA       SUNNY     70  54  56 N10       30.08F
WASECA         SUNNY     72  55  56 N9        30.10F
ALBERT LEA     PTSUNNY   68  54  60 E9        30.08F
$$
MNZ078>079-086>088-094>096-012000-
   Southeast Minnesota

CITY           SKY/WX    TMP DP  RH WIND       PRES   REMARKS
ROCHESTER      PTSUNNY   68  56  65 NE7       30.09F
RED WING       SUNNY     73  45  35 E12       30.07F
STANTON        SUNNY     73  51  45 NE9       30.08F
DODGE CENTER   SUNNY     72  52  49 NE7       30.08F
WINONA         SUNNY     72  54  53 NE5       30.07F
AUSTIN         PTSUNNY   66  54  63 E8        30.08F
PRESTON        CLOUDY    62  54  75 NE7       30.09F
$$
ABBREVIATIONS USED IN REMARKS
   TC - TEMPERATURES IN CELSIUS
  WCI - WIND CHILL INDEX
   HX - HEAT INDEX
  VSB - VISIBILITY
$$



USA.gov is the U.S. government's official web portal to all federal, state and local government web resources and services.